www.pogodaiklimat.ru

Погода и климат >> Архив погоды >> Россия >> Ямало-Ненецкий АО >> Надым


АРХИВ ПОГОДЫ в Надыме

Время (UTC), дата Ветер
(напр.,м/с)
 
Видим.   Явления Облачность Т
(С)
Тd
(С)
f
(%)
Тe
(С)
Тes
(С)
Комфортность P
(гПа)
Po
(гПа)
Тmin
(С)
Tmax
(С)
R
(мм)
R24
(мм)
S
(см)
12 10.07 С 1 10 км 10/5 1200 м
[Cu hum Ci fib]
+19.6 +4.9 38 +21 +23 комфорт 1007.2 1005.5
15 10.07 В 2 10 км 6/0
[Ac trans Ci fib]
+18.6 +5.7 43 +19 +20 1006.9 1005.2 +20.8
18 10.07 В 2 10 км 6/0
[Ac trans Ci fib]
+15.2 +8.3 63 +15 +15 1006.8 1005.2
21 10.07 В 3 10 км 8/0
[Ac trans]
+14.8 +8.4 65 +14 +14 1005.8 1004.1
00 11.07 В 4 10 км {дождь} 10/0
[]
+14.1 +11.2 83 +13 +13 1004.3 1002.7
03 11.07 ЮВ 4 10 км {ливн. осадки} 10/10 180 м
[St]
+14.7 +13.8 94 +13 +13 1002.6 1000.9 +13.4 1
06 11.07 ЮВ 3 10 км {ливн. осадки} 10/10 360 м
[Sc]
+18.9 +16.1 84 +20 +20 1001.9 1000.3
09 11.07 ЮВ 4 10 км 10/10 1000 м
[Cb cap]
+25.3 +16.6 59 +29 +29 душно 1001.0 999.4
12 11.07 ЮВ 3
{10}
10 км 9/5 1000 м
[Cb cap Ac und]
+26.3 +15.1 50 +29 +30 жарко 999.6 998.0
15 11.07 Ю 3
{14}
10 км слаб. ливневой дождь {гроза} 10/8 1000 м
[Cb cap Ac und]
+19.0 +18.2 95 +21 +21 комфорт 999.4 997.8 +27.1 11
18 11.07 Ю 2
{14}
10 км {гроза, ливн. осадки} 10/5 750 м
[Cb cap Ac trans Ci fib]
+17.8 +16.5 92 +18 +18 1000.7 999.1
21 11.07 Ю 3 10 км 10/5 900 м
[Cb cap Ac und]
+17.3 +16.0 92 +17 +17 1001.7 1000.1
00 12.07 Ю 2 10 км 4/3 1000 м
[Cb cap Ac trans Ci fib]
+15.7 +12.6 82 +16 +16 1004.0 1002.3
03 12.07 Ю 3
{10}
10 км 3/0
[Ci fib]
+18.8 +12.6 67 +20 +24 1005.4 1003.8 +15.2 0.6
06 12.07 ЮЗ 4
{11}
10 км 4/4
[Cu hum]
+23.4 +10.9 45 +26 +30 жарко 1006.7 1005.1
09 12.07 ЮЗ 4-11
{13}
10 км 8/6 1000 м
[Cu Sc Ac trans]
+24.2 +10.2 41 +25 +27 комфорт 1007.9 1006.3
12 12.07 ЮЗ 3
{11}
10 км 9/8 1500 м
[Cu hum Ac trans]
+24.3 +9.7 40 +25 +26 комфорт 1009.3 1007.7
15 12.07 З 2 10 км 3/0
[Ac trans Ci fib]
+19.6 +8.7 49 +21 +22 комфорт 1011.3 1009.6 +25.5 0.6
18 12.07 ЮЗ 1 10 км 4/0
[Ac trans]
+13.8 +9.2 74 +14 +14 1012.6 1010.9
21 12.07 ЮЗ 1 10 км 4/0
[Ac trans]
+11.9 +8.4 79 +12 +12 1014.0 1012.3
00 13.07 З 1 10 км 3/0
[Ci fib]
+13.4 +9.9 79 +14 +15 1015.6 1013.9
03 13.07 З 2 10 км 6/6 600 м
[Cu hum]
+17.1 +9.5 61 +17 +20 1017.5 1015.8 +11.0
06 13.07 СЗ 2 10 км 10/8 1000 м
[Cu hum Ci fib]
+19.2 +9.4 53 +21 +22 комфорт 1018.2 1016.5
12 13.07 СВ 2 10 км 10/3 1000 м
[Cu hum Ci fib]
+20.5 +8.5 46 +22 +25 комфорт 1019.2 1017.5
15 13.07 СВ 1 10 км 10/0
[Ac trans Ci fib]
+18.4 +9.2 55 +20 +20 1018.9 1017.3 +20.9
18 13.07 В 2 10 км 9/0
[Ac trans]
+17.2 +9.8 62 +18 +18 1019.0 1017.4
21 13.07 В 2 10 км 8/0
[Ac trans]
+15.1 +10.4 73 +15 +15 1017.8 1016.1
00 14.07 ЮВ 4 4000 м гроза, ливневой дождь 10/6 900 м
[Cb cap Ac und]
+14.6 +11.7 83 +13 +13 1016.2 1014.5
03 14.07 ЮВ 6 10 км {гроза, ливн. осадки} 9/3 1000 м
[Cb cap Ac trans]
+17.1 +12.6 75 +16 +17 1013.4 1011.7 +14.1 2
06 14.07 ЮВ 4
{10}
10 км {гроза, ливн. осадки} 10/4 1000 м
[Cb cap Ac trans Ci fib]
+24.3 +14.1 53 +27 +29 жарко 1012.3 1010.7
09 14.07 Ю 4 10 км 10/0
[Ac trans Ci fib]
+29.9 +16.4 44 +33 +37 душно 1009.8 1008.2
12 14.07 Ю 2 10 км 10/0
[Ac trans Ci fib]
+31.1 +17.4 44 +35 +38 очень
душно
1009.6 1008.0
15 14.07 Ю 2
{10}
10 км 10/0
[Ci fib]
+29.4 +16.7 46 +33 +33 душно 1009.1 1007.5 +31.3
18 14.07 ЮВ 2 10 км 10/0
[Ci fib]
+25.1 +17.5 63 +29 +29 душно 1009.0 1007.4
21 14.07 Ю 2 10 км 10/0
[Ci fib]
+22.3 +17.9 76 +27 +27 душно 1009.0 1007.4
00 15.07 Ю 2 10 км 10/0
[Ci fib]
+23.5 +19.5 78 +29 +29 душно 1009.0 1007.4
03 15.07 Ю 3 10 км 4/0
[Ci fib]
+27.8 +18.0 55 +32 +37 душно 1008.6 1007.0 +21.3
06 15.07 Ю 4-10
{10}
10 км 6/0
[Ci fib]
+31.2 +14.7 37 +33 +40 жарко 1008.3 1006.7
09 15.07 Ю 3
{11}
10 км 8/0
[Ci fib]
+33.0 +13.2 30 +34 +41 очень
жарко
1008.4 1006.8
12 15.07 Ю 3 10 км 8/0
[Ci fib]
+32.4 +13.0 31 +33 +36 жарко 1008.8 1007.3
15 15.07 Ю 1 10 км 10/0
[Ci fib]
+29.0 +15.8 45 +32 +33 душно 1009.3 1007.7 +33.5
18 15.07 ЮВ 1 10 км 6/0
[Ci fib]
+23.4 +17.2 68 +29 +29 душно 1009.9 1008.3
21 15.07 СЗ 1 10 км 6/0
[Ci fib]
+18.7 +17.8 95 +21 +21 комфорт 1011.0 1009.3
00 16.07 СЗ 1 10 км 6/0
[Ci fib]
+17.6 +16.2 91 +19 +20 1011.7 1010.0
03 16.07 С 1 10 км 8/0
[Ci fib]
+22.0 +16.9 73 +26 +32 душно 1011.8 1010.2 +17.5
06 16.07 С 1 10 км 10/0
[Ac trans Ci fib]
+28.2 +19.7 60 +34 +42 очень
душно
1011.1 1009.5
09 16.07 ЮВ 2 10 км 8/4 1000 м
[Cu hum Ci fib]
+33.2 +15.0 33 +35 +40 душно 1010.0 1008.4
12 16.07 В 3 10 км 10/0
[Ac trans Ci fib]
+33.0 +13.8 31 +34 +36 очень
жарко
1009.6 1008.0
15 16.07 штиль 0 10 км 10/0
[Ci fib]
+29.6 +18.8 52 +35 +35 очень
душно
1009.3 1007.7 +33.3
18 16.07 В 1 10 км 6/0
[Ci fib]
+25.0 +18.0 65 +29 +29 душно 1009.2 1007.6
21 16.07 В 2 10 км {метель} 6/0
[Ci fib]
+22.4 +17.9 76 +27 +27 душно 1009.2 1007.6
00 17.07 В 4 20 км 3/0
[Ac trans]
+20.8 +17.6 82 +25 +25 комфорт 1011.2 1010.4
03 17.07 В 2 10 км 6/0
[Ci fib]
+26.0 +17.0 58 +30 +35 душно 1010.0 1008.4 +21.5
06 17.07 В 4 10 км 5/0
[Ci fib]
+30.4 +14.1 37 +32 +39 жарко 1009.0 1007.4

 

Местоположение метеостанции Надым (Ямало-Ненецкий АО, Россия): широта 65.47 долгота 72.67 высота над уровнем моря 19 м.

В архиве по умолчанию представлена погода в Надыме за последнюю неделю. Архивные данные за месяц целиком и за предыдущие месяцы, начиная с января 2011 года, Вы можете получить, выбрав интересующий диапазон дат из раскрывающегося списка и нажав кнопку "Ввод!".


*Определитесь, кто Вы:
робот инопланетянин человек

Внимание! Время в таблицах - всемирное. Для получения местного времени необходимо прибавить поправку, которая равна 5 ч.

Смотрите также архив погоды в соседних городах и на ближайших метеорологических станциях:

Погода в Пангодах (Ямало-Ненецкий АО, Россия) (93 км)
Погода в Лонг-Югане (Ямало-Ненецкий АО, Россия) (112 км)
Погода в Ныде (Ямало-Ненецкий АО, Россия) (130 км)
Погода в Полуе (Ямало-Ненецкий АО, Россия) (193 км)
Погода в Новом Уренгое (Ямало-Ненецкий АО, Россия) (200 км)
Погода в Новом Порте (Ямало-Ненецкий АО, Россия) (246 км)
Погода в Тарко-Сале (Ямало-Ненецкий АО, Россия) (248 км)
Погода в Юильске (Ханты-Мансийский АО, Россия) (248 км)
Погода в Белоярске (Ямало-Ненецкий АО, Россия) (257 км)
Погода в Уренгое (Ямало-Ненецкий АО, Россия) (267 км)

Пояснения к столбцам:

Ветер - указаны скорость ветра в м/с - средняя за 10 мин, порывы в срок и между сроками (в фигурных скобках) и направление, откуда дует ветер: С - северный, СВ - северо-восточный, В - восточный, ЮВ - юго-восточный, Ю - южный, ЮЗ - юго-западный, З - западный, СЗ - северо-западный.
Видимость - горизонтальная дальность видимости в метрах или километрах. При видимости от 1 до 10 км при отсутствии осадков обычно наблюдается дымка, при ухудшении видимости до 1 км и менее - туман. В сухую погоду видимость может ухудшаться дымом, пылью или мглою.
Явления - указаны атмосферные явления, наблюдавшиеся в срок или в последний час перед сроком; фигурными скобками обозначены явления, наблюдавшиеся между сроками (за 1-3 часа до срока); квадратными скобками обозначены град или гололедные отложения с указанием их диаметра в мм.
Облачность - указаны через наклонную черту общая и нижняя облачность в баллах и высота нижней границы облаков в метрах; квадратными скобками обозначены формы облаков: Ci - перистые, Cs - перисто-слоистые, Cc - перисто-кучевые, Ac - высококучевые, As - высокослоистые, Sc - слоисто-кучевые, Ns - слоисто-дождевые, Cu - кучевые, Cb - кучево-дождевые. Подробнее классификацию облаков см. в Атласе облаков (PDF).
T - Температура воздуха - температура, измеренная на высоте 2 м над землей.
Td - Температура точки росы - температура, при понижении до которой содержащийся в воздухе водяной пар достигнет насыщения.
f - Относительная влажность воздуха - влажноcть воздуха, измеренная на высоте 2 м над землей.
Te - Эффективная температура - температура, которую ощущает одетый по сезону человек в тени. Характеристика душности погоды. При расчете учитывается влияние влажности воздуха и скорости ветра на теплоощущения человека.
Tes - Эффективная температура на солнце - температура, которую ощущает человек, с поправкой на солнечный нагрев. Характеристика знойности погоды. Зависит от высоты солнца над горизонтом, облачности и скорости ветра. Ночью, в пасмурную погоду, а также при ветре 12 м/с и более поправка равна нулю.
P - Атмосферное давление - приведенное к уровню моря атмосферное давление.
Po - Атмосферное давление - измеренное на уровне метеостанции атмосферное давление.
Tmin - Минимальная температура - минимум температуры воздуха на высоте 2 м над землей.
Tmax - Максимальная температура - максимум температуры воздуха на высоте 2 м над землей.
R - Количество осадков - Количество выпавших осадков за период времени, мм. При наведении курсора мыши на число - период времени, за который выпало указанное количество осадков.
R24 - Количество осадков - Количество выпавших осадков за 24 часа, мм.
S - Снежный покров - Высота снежного покрова, см. При наведении курсора мыши на число - состояние снежного покрова и степень покрытия местности в баллах.